ONEWEB-0526 (54144 NORAD) Tracking and Keplerian Element Data

This shows tracking and keplerian element data for the satellite.

Feedback or suggestion? Click here.




ElementValue
Catalog54144
NameONEWEB-0526
Epoch Orbit130
Epoch Day13.91667824
Epoch Year2023
RAAN193.5327
Inclination87.98
Eccentricity0.0014862
Argument of Perigee35.5357
Mean Anonmoly66.047
Mean Motion13.32859556
Decay Rate0.00060379
L11 54144U 22138AH 23013.91667824 .00060379 00000+0 12293+0 0 9996
L22 54144 87.9800 193.5327 0014862 35.5357 66.0470 13.32859556 1305



Live tracking and technical data element details for ONEWEB-0526 (NORAD 54144). ONEWEB-0526 can be tracked NOW for your location showing map with azimuth and elevation plus other details from your city location.







IsCatalogInMostPopularTable: catalog: 54144, numindb: 12
Update: records affected: 1



GetName: 54144 ONEWEB-0526

Hit Count: updated at: Fri, 27 Jan 2023 21:22:45 GMT